FW4212 Weather Reports


Display with metric or nautical units.
time (UTC)temp
F
wind
direction
speed
MPH
gust
MPH
rain 1hr
in
rain 24hr
in
rain mn
in
humidity
%
barometer
mb
20260503002040 55 287 0.0 3.0 0.00 0.00 0.00 45 1015.1
20260503001546 56 286 0.0 2.0 0.00 0.00 0.00 45 1015.0
20260503001040 56 286 0.0 2.0 0.00 0.00 0.00 45 1014.9
20260503000538 56 321 0.0 2.0 0.00 0.00 0.00 43 1014.8
20260503000039 57 274 0.0 7.0 0.00 0.00 0.00 43 1014.8
20260502235537 57 294 0.0 7.0 0.00 0.00 0.00 41 1014.8
20260502235037 57 313 0.0 8.0 0.00 0.00 0.00 41 1014.6
20260502234538 58 269 3.0 8.0 0.00 0.00 0.00 39 1014.5
20260502234037 58 355 1.0 8.0 0.00 0.00 0.00 40 1014.4
20260502233536 58 309 0.0 8.0 0.00 0.00 0.00 40 1014.3
20260502233036 58 355 1.0 5.0 0.00 0.00 0.00 40 1014.2
20260502232536 58 327 0.0 5.0 0.00 0.00 0.00 41 1014.0
20260502232036 58 225 0.0 5.0 0.00 0.00 0.00 41 1014.0
20260502231536 58 344 1.0 4.0 0.00 0.00 0.00 41 1014.0
20260502231038 58 284 0.0 4.0 0.00 0.00 0.00 41 1013.8
20260502230536 59 341 1.0 4.0 0.00 0.00 0.00 39 1013.9
20260502230036 59 315 1.0 9.0 0.00 0.00 0.00 39 1013.8
20260502225536 59 267 2.0 9.0 0.00 0.00 0.00 38 1013.9
20260502225034 60 319 1.0 8.0 0.00 0.00 0.00 39 1013.7
20260502224537 60 339 2.0 9.0 0.00 0.00 0.00 38 1013.6
20260502224034 60 5 2.0 9.0 0.00 0.00 0.00 37 1013.5
20260502223534 61 268 3.0 10.0 0.00 0.00 0.00 36 1013.5
20260502223034 61 313 2.0 9.0 0.00 0.00 0.00 38 1013.3
20260502222534 61 299 2.0 11.0 0.00 0.00 0.00 35 1013.3
20260502222033 62 287 3.0 10.0 0.00 0.00 0.00 36 1013.3
20260502221533 62 288 3.0 10.0 0.00 0.00 0.00 38 1013.2
20260502221033 61 15 2.0 8.0 0.00 0.00 0.00 35 1013.0
20260502220533 61 38 1.0 6.0 0.00 0.00 0.00 36 1013.1
20260502220035 62 314 2.0 6.0 0.00 0.00 0.00 36 1013.0
20260502215533 63 360 0.0 7.0 0.00 0.00 0.00 35 1012.9
20260502215032 62 245 1.0 8.0 0.00 0.00 0.00 35 1012.7
20260502214532 63 329 2.0 8.0 0.00 0.00 0.00 35 1012.6
20260502214032 62 292 2.0 5.0 0.00 0.00 0.00 36 1012.6
20260502213531 62 318 1.0 4.0 0.00 0.00 0.00 34 1012.5
20260502213038 62 330 1.0 4.0 0.00 0.00 0.00 36 1012.5
20260502212532 62 24 0.0 10.0 0.00 0.00 0.00 41 1012.4
20260502212031 62 312 1.0 10.0 0.00 0.00 0.00 42 1012.4
20260502211530 62 271 4.0 8.0 0.00 0.00 0.00 40 1012.5
20260502211030 62 34 1.0 7.0 0.00 0.00 0.00 44 1012.4
20260502210530 63 347 0.0 5.0 0.00 0.00 0.00 42 1012.3
20260502210030 63 246 1.0 4.0 0.00 0.00 0.00 39 1012.4
20260502205529 63 246 0.0 4.0 0.00 0.00 0.00 45 1012.4
20260502205029 63 202 1.0 4.0 0.00 0.00 0.00 40 1012.3
20260502204535 62 292 0.0 2.0 0.00 0.00 0.00 42 1012.3
20260502204027 62 233 0.0 4.0 0.00 0.00 0.00 41 1012.3
20260502203528 62 12 0.0 7.0 0.00 0.00 0.00 44 1012.3
20260502203037 62 261 3.0 6.0 0.00 0.00 0.00 40 1012.4
20260502202527 62 256 1.0 5.0 0.00 0.00 0.00 45 1012.5
20260502202027 62 214 2.0 5.0 0.00 0.00 0.00 40 1012.5
20260502201527 62 198 0.0 6.0 0.00 0.00 0.00 43 1012.5
20260502201026 62 211 2.0 6.0 0.00 0.00 0.00 41 1012.5
20260502200526 62 217 0.0 7.0 0.00 0.00 0.00 43 1012.5
20260502200045 63 158 2.0 7.0 0.00 0.00 0.00 41 1012.6
20260502195525 63 254 0.0 3.0 0.00 0.00 0.00 44 1012.7
20260502195023 62 219 1.0 3.0 0.00 0.00 0.00 42 1012.8
20260502194522 62 202 1.0 3.0 0.00 0.00 0.00 45 1012.8
20260502194021 62 159 0.0 4.0 0.00 0.00 0.00 47 1012.9
20260502193521 61 105 1.0 6.0 0.00 0.00 0.00 42 1012.9
20260502193023 61 261 1.0 6.0 0.00 0.00 0.00 41 1013.0
20260502192621 62 190 1.0 4.0 0.00 0.00 0.00 42 1013.0
20260502192020 62 48 1.0 3.0 0.00 0.00 0.00 41 1013.2
20260502191523 62 263 0.0 6.0 0.00 0.00 0.00 41 1013.1
20260502191019 61 238 1.0 6.0 0.00 0.00 0.00 40 1013.2
20260502190522 61 142 1.0 7.0 0.00 0.00 0.00 42 1013.2
20260502190018 61 172 2.0 5.0 0.00 0.00 0.00 41 1013.2
20260502185517 61 197 1.0 5.0 0.00 0.00 0.00 41 1013.3
20260502185017 62 115 1.0 5.0 0.00 0.00 0.00 43 1013.3
20260502184521 61 203 1.0 3.0 0.00 0.00 0.00 42 1013.4
20260502184017 61 241 0.0 6.0 0.00 0.00 0.00 43 1013.5
20260502183517 60 40 1.0 8.0 0.00 0.00 0.00 41 1013.5
20260502183017 61 350 3.0 8.0 0.00 0.00 0.00 43 1013.5
20260502182519 61 211 1.0 3.0 0.00 0.00 0.00 48 1013.7
20260502182014 59 183 0.0 4.0 0.00 0.00 0.00 45 1013.7
20260502181519 59 142 1.0 6.0 0.00 0.00 0.00 45 1013.6
20260502181013 58 105 2.0 7.0 0.00 0.00 0.00 43 1013.7
20260502180515 58 355 0.0 8.0 0.00 0.00 0.00 44 1013.8
20260502170507 56 92 2.0 6.0 0.00 0.00 0.00 44 1014.8
20260502164003 55 90 1.0 4.0 0.00 0.00 0.00 51 1015.1
20260502163502 54 79 1.0 4.0 0.00 0.00 0.00 48 1015.3
20260502163002 54 32 0.0 4.0 0.00 0.00 0.00 53 1015.4
20260502162502 54 142 2.0 4.0 0.00 0.00 0.00 49 1015.5
20260502162100 54 90 1.0 3.0 0.00 0.00 0.00 50 1015.6
20260502161606 54 59 0.0 3.0 0.00 0.00 0.00 52 1015.7
20260502161058 53 75 0.0 3.0 0.00 0.00 0.00 53 1015.7
20260502160601 53 90 1.0 3.0 0.00 0.00 0.00 55 1015.7
20260502160106 53 217 0.0 3.0 0.00 0.00 0.00 55 1015.9
20260502152055 53 67 0.0 3.0 0.00 0.00 0.00 58 1015.7
20260502151609 53 34 0.0 3.0 0.00 0.00 0.00 54 1015.7
20260502151053 53 55 0.0 3.0 0.00 0.00 0.00 60 1015.8
20260502150553 53 199 0.0 3.0 0.00 0.00 0.00 60 1015.7
20260502150125 52 265 0.0 3.0 0.00 0.00 0.00 59 1015.5
20260502130543 53 104 0.0 2.0 0.00 0.00 0.00 71 1014.9
20260502123540 53 86 0.0 0.0 0.00 0.00 0.00 73 1015.0
20260502123040 53 87 0.0 2.0 0.00 0.00 0.00 73 1014.9
20260502122539 52 80 0.0 2.0 0.00 0.00 0.00 72 1014.6
20260502122039 52 99 0.0 2.0 0.00 0.00 0.00 74 1014.6
20260502121539 52 48 0.0 1.0 0.00 0.00 0.00 74 1014.8
20260502121042 52 5 0.0 0.0 0.00 0.00 0.00 72 1014.8
20260502120537 52 5 0.0 2.0 0.00 0.00 0.00 71 1014.6
20260502115536 52 303 0.0 0.0 0.00 0.00 0.00 73 1014.3
20260502115037 52 303 0.0 0.0 0.00 0.00 0.00 72 1014.3
20260502114538 52 71 0.0 0.0 0.00 0.00 0.00 73 1014.3
20260502114035 52 71 0.0 0.0 0.00 0.00 0.00 73 1014.5
20260502113534 52 69 0.0 0.0 0.00 0.00 0.00 72 1014.4
20260502113038 52 69 0.0 0.0 0.00 0.00 0.00 75 1014.6
20260502112533 52 69 0.0 0.0 0.00 0.00 0.00 75 1014.6
20260502112036 52 69 0.0 1.0 0.00 0.00 0.00 74 1014.5
20260502111534 52 78 0.0 1.0 0.00 0.00 0.00 76 1014.4
20260502111034 52 90 0.0 0.0 0.00 0.00 0.00 76 1014.3
20260502110534 52 98 0.0 0.0 0.00 0.00 0.00 78 1014.2
20260502110035 51 101 0.0 0.0 0.00 0.00 0.00 81 1014.2
20260502105531 51 174 0.0 0.0 0.00 0.00 0.00 80 1014.2
20260502105033 51 284 0.0 0.0 0.00 0.00 0.00 82 1014.2
20260502104530 51 63 0.0 0.0 0.00 0.00 0.00 81 1014.4
20260502104031 51 65 0.0 0.0 0.00 0.00 0.00 80 1014.2
20260502103532 51 82 0.0 0.0 0.00 0.00 0.00 81 1013.7
20260502103056 51 82 0.0 0.0 0.00 0.00 0.00 81 1013.8
20260502102530 51 84 0.0 0.0 0.00 0.00 0.00 81 1013.9
20260502102030 51 92 0.0 0.0 0.00 0.00 0.00 80 1013.8
20260502101545 51 98 0.0 0.0 0.00 0.00 0.00 81 1013.9
20260502101029 52 98 0.0 0.0 0.00 0.00 0.00 81 1013.8
20260502100531 51 98 0.0 0.0 0.00 0.00 0.00 81 1013.7
20260502091526 52 102 0.0 0.0 0.00 0.00 0.00 83 1014.1
20260502091025 52 102 0.0 0.0 0.00 0.00 0.00 84 1014.4
20260502090526 52 102 0.0 0.0 0.00 0.00 0.00 84 1014.5
20260502071521 52 207 0.0 0.0 0.00 0.00 0.00 88 1013.4
20260502071020 52 207 0.0 0.0 0.00 0.00 0.00 88 1013.4
20260502070519 52 207 0.0 0.0 0.00 0.00 0.00 88 1013.3
20260502070019 52 207 0.0 0.0 0.00 0.00 0.00 88 1013.2
20260502065518 52 207 0.0 0.0 0.00 0.00 0.00 88 1013.2
20260502065022 52 207 0.0 0.0 0.00 0.00 0.00 88 1013.1
20260502064517 52 207 0.0 0.0 0.00 0.00 0.00 88 1013.3
20260502064017 52 207 0.0 0.0 0.00 0.00 0.00 88 1013.3
20260502063516 52 207 0.0 0.0 0.00 0.00 0.00 88 1013.5
20260502063017 52 207 0.0 0.0 0.00 0.00 0.00 88 1013.4
20260502062516 52 207 0.0 0.0 0.00 0.00 0.00 88 1013.4
20260502062016 52 207 0.0 0.0 0.00 0.00 0.00 88 1013.5
20260502061515 52 207 0.0 0.0 0.00 0.00 0.00 88 1013.6
20260502061017 52 207 0.0 0.0 0.00 0.00 0.00 87 1013.6
20260502060513 52 207 0.0 0.0 0.00 0.00 0.00 87 1013.7
20260502060013 52 207 0.0 0.0 0.00 0.00 0.00 87 1013.7
20260502055513 52 207 0.0 0.0 0.00 0.00 0.00 86 1013.7
20260502055014 52 207 0.0 0.0 0.00 0.00 0.00 86 1013.7
20260502054513 52 207 0.0 0.0 0.00 0.00 0.00 86 1013.9
20260502054011 52 207 0.0 0.0 0.00 0.00 0.00 86 1013.9
20260502053512 52 207 0.0 0.0 0.00 0.00 0.00 86 1014.0
20260502053011 52 207 0.0 0.0 0.00 0.00 0.00 86 1014.0
20260502052511 52 207 0.0 0.0 0.00 0.00 0.00 86 1014.0
20260502052012 52 207 0.0 0.0 0.00 0.00 0.00 86 1014.0
20260502051515 52 207 0.0 0.0 0.00 0.00 0.00 86 1014.0
20260502051010 52 207 0.0 0.0 0.00 0.00 0.00 86 1013.9
20260502050511 52 207 0.0 0.0 0.00 0.00 0.00 86 1014.0
20260502050011 52 207 0.0 0.0 0.00 0.00 0.00 86 1013.8
20260502045509 52 207 0.0 0.0 0.00 0.00 0.00 86 1013.7
20260502045009 52 207 0.0 0.0 0.00 0.00 0.00 86 1013.9
20260502044508 52 207 0.0 0.0 0.00 0.00 0.00 85 1013.8
20260502044008 52 207 0.0 0.0 0.00 0.00 0.00 85 1013.9
20260502043511 52 207 0.0 0.0 0.00 0.00 0.00 85 1013.9
20260502043008 52 207 0.0 0.0 0.00 0.00 0.00 85 1013.8
20260502042508 52 207 0.0 0.0 0.00 0.00 0.00 85 1013.7
20260502042007 52 207 0.0 0.0 0.00 0.00 0.00 85 1013.9
20260502041507 52 207 0.0 0.0 0.00 0.00 0.00 84 1014.0
20260502041006 53 207 0.0 0.0 0.00 0.00 0.00 84 1014.0
20260502040505 53 207 0.0 0.0 0.00 0.00 0.00 84 1013.9
20260502040008 53 207 0.0 0.0 0.00 0.00 0.00 84 1014.0
20260502035503 53 207 0.0 0.0 0.00 0.00 0.00 83 1014.0
20260502035003 53 207 0.0 0.0 0.00 0.00 0.00 83 1014.0
20260502034503 53 207 0.0 0.0 0.00 0.00 0.00 83 1014.1
20260502034002 53 207 0.0 0.0 0.00 0.00 0.00 83 1014.0
20260502033502 53 207 0.0 0.0 0.00 0.00 0.00 83 1014.1
20260502033007 53 207 0.0 0.0 0.00 0.00 0.00 82 1014.1
20260502032502 53 207 0.0 0.0 0.00 0.00 0.00 82 1014.1
20260502032002 53 207 0.0 0.0 0.00 0.00 0.00 82 1014.2
20260502031502 53 207 0.0 0.0 0.00 0.00 0.00 82 1014.3
20260502031002 53 207 0.0 0.0 0.00 0.00 0.00 81 1014.3
20260502030503 53 207 0.0 0.0 0.00 0.00 0.00 81 1014.4
20260502030002 54 207 0.0 0.0 0.00 0.00 0.00 81 1014.4
20260502025601 54 207 0.0 0.0 0.00 0.00 0.00 80 1014.5
20260502025102 54 207 0.0 0.0 0.00 0.00 0.00 80 1014.6
20260502024559 54 207 0.0 0.0 0.00 0.00 0.00 79 1014.7
20260502024059 54 207 0.0 0.0 0.00 0.00 0.00 78 1014.7
20260502023559 54 207 0.0 0.0 0.00 0.00 0.00 78 1014.8
20260502023102 54 207 0.0 0.0 0.00 0.00 0.00 78 1014.6
20260502022558 54 207 0.0 0.0 0.00 0.00 0.00 78 1014.5
20260502022058 54 207 0.0 0.0 0.00 0.00 0.00 78 1014.4
20260502021559 54 207 0.0 0.0 0.00 0.00 0.00 78 1014.3
20260502021103 54 207 0.0 0.0 0.00 0.00 0.00 77 1014.2
20260502020601 55 207 0.0 0.0 0.00 0.00 0.00 76 1014.4
20260502020058 55 207 0.0 0.0 0.00 0.00 0.00 76 1014.2
20260502015557 55 207 0.0 0.0 0.00 0.00 0.00 75 1014.2
20260502015057 55 207 0.0 0.0 0.00 0.00 0.00 74 1014.1
20260502014556 55 207 0.0 0.0 0.00 0.00 0.00 73 1014.1
20260502014056 55 207 0.0 0.0 0.00 0.00 0.00 72 1014.0
20260502013556 56 207 0.0 0.0 0.00 0.00 0.00 72 1013.9
20260502013059 56 207 0.0 0.0 0.00 0.00 0.00 72 1013.8
20260502012556 56 207 0.0 0.0 0.00 0.00 0.00 72 1013.8
20260502012056 56 207 0.0 0.0 0.00 0.00 0.00 71 1013.9
20260502011558 57 207 0.0 0.0 0.00 0.00 0.00 68 1014.0
20260502011055 57 207 0.0 0.0 0.00 0.00 0.00 68 1013.9
20260502010557 57 207 0.0 0.0 0.00 0.00 0.00 67 1013.8
20260502010058 58 207 0.0 0.0 0.00 0.00 0.00 67 1013.8
20260502005554 58 207 0.0 0.0 0.00 0.00 0.00 67 1013.7
20260502005057 58 207 0.0 0.0 0.00 0.00 0.00 66 1013.7
20260502004655 58 213 0.0 0.0 0.00 0.00 0.00 67 1013.7
20260502004054 58 213 0.0 0.0 0.00 0.00 0.00 66 1013.5
20260502003555 59 213 0.0 0.0 0.00 0.00 0.00 65 1013.6
20260502003056 59 203 0.0 0.0 0.00 0.00 0.00 64 1013.4
20260502002553 59 203 0.0 0.0 0.00 0.00 0.00 64 1013.4